THORAD DELTA 1 DEB, 42625

Orbit data source: Space-Track

THORAD DELTA 1 DEB, 42625 is space debris in SSO originally from a launch on Fri, 15 Nov 1974 UTC launched from the Air Force Western Test Range (AFWTR). Debris objects in space refer to the collection of defunct objects orbiting the Earth. Examples of debris include non-operational satellites, rocket bodies, and fragments generated from explosions, collisions, or faulty payload assembly.

Loading next visibility...
Identifier
42625, 1974-089GS
Orbit
SSO
Country
Flag of USUS
Related business
Manufacturer
Unknown
Mission
Spacecraft
Bus & Motor
Unknown
Mass
Unknown
Launch date (UTC)
1974-11-15 (51 years ago)
Launch vehicle
Unknown
Launch site
Air Force Western Test Range (AFWTR)
Object type
Payload
Rocket body
Debris
Shape & HBR
Unknown shape, 0.1 m
Radar Cross Section
Small (<0.1 m²)

Expand to show TLE details & history
Last TLE update: 4 days ago

TLE from 4 days ago
0 THORAD DELTA 1 DEB
1 42625U 74089GS  26103.89888941  .00000069  00000-0  80771-3 0  9995
2 42625 102.0350  80.3895 0002818 341.2201  46.8150 12.44248959563991
Epoch: 2026-04-13T21:34Z
TLE epoch observation values (Epoch: 2026-04-13T21:34:24.045Z)
Latitude
27.42851°
Longitude
-91.6148°
Altitude
1,490.172 km
Speed
7.122 km/s
True Right ascension
04h 56m 16s
True Declination
27° 18' 04"
Sunlit
Object was in daylight at epoch
Visualization orbit readout
Latitude
Unknown
Longitude
Unknown
Altitude
Unknown
Speed
Unknown
Apparent Right ascension
Unknown
Apparent Declination
Unknown
Sunlit
N/A
Visualization observer readout
Local Sidereal Time
17:07:40
Azimuth
Unknown
Elevation
Unknown
Doppler factor
Unknown
Orbital elements
Apogee altitude
1,488.43 km
Perigee altitude
1,483.998 km
Semi-major axis
7,864.351 km
Eccentricity
0.00028
Inclination
102.035°
RAAN
80.3895°
Arg. of periapsis
341.2201°
True anomaly
46.83855°
Mean anomaly
46.815°
Eccentric anomaly
46.82678°
Mean motion
3.11207 °/min
Orbital period
115.68 mins
BSTAR
0.00080771
Loading maneuver chart data...
Computing Atmospheric mass density...

Documentation

Showing up to 5 results
|